Вернуться в каталог

COSMOS 1275 DEB

АктивенPO
NORAD 42119·DEBRIS·🇷🇺 Russia

Запущен Jun 4, 1981 с Plesetsk Cosmodrome

Loading…

Ближайшие Пролёты (ближайшие 24 часа)

TLE

СвежийSource: Space-Track

Эпоха: Sep 12, 2026, 12:28 UTC

1 42119U 81053QF  26255.51996729  .00000268  00000-0  20888-3 0  9997
2 42119  83.1761 177.3445 0038956 223.2504 136.5600 13.88386782119371

Отслеживайте COSMOS 1275 DEB в реальном времени с AllMySat

Download on the App Store